Location: ??????????
(54.8537°N, 38.8755°E)
Time: 02:18:45
(UTC+00:00)

Tiros 1 despin weight - Pass Details

Date: 13 September 2024
Orbit: 573 x 614 km, 48.2° (Epoch: 07 October)

Event Time Altitude Azimuth Distance (km) Brightness Sun altitude
Rises 05:10:38 0° 264° (W) 2,895 ? 18.5°
Reaches altitude 10° 05:13:07 10° 255° (WSW) 1,987 ? 18.8°
Maximum altitude 05:17:10 32° 193° (SSW) 1,073 ? 19.4°
Drops below altitude 10° 05:21:12 10° 130° (SE) 1,973 ? 19.9°
Sets 05:23:40 0° 121° (ESE) 2,871 ? 20.2°
